EW5822 Weather Reports


Display with metric or nautical units.
time (UTC)temp
F
wind
direction
speed
MPH
gust
MPH
rain 1hr
in
rain 24hr
in
rain mn
in
humidity
%
barometer
mb
20260905042015 80 35 8.0 10.0 0.00 0.00 0.00 75 1011.2
20260905041117 80 36 8.0 10.0 0.00 0.00 0.00 75 1011.1
20260905040004 80 26 8.0 9.0 0.00 0.00 0.00 75 1011.1
20260905035616 80 36 8.0 9.0 0.00 0.00 0.00 74 1011.1
20260905034503 81 24 7.0 9.0 0.00 0.00 0.00 72 1011.1
20260905033603 81 49 7.0 8.0 0.00 0.00 0.00 71 1011.2
20260905032703 82 71 7.0 9.0 0.00 0.00 0.00 71 1011.2
20260905031803 82 50 9.0 10.0 0.00 0.00 0.00 70 1011.0
20260905030903 82 112 10.0 12.0 0.00 0.00 0.00 69 1010.9
20260905030003 83 113 10.0 12.0 0.00 0.00 0.00 69 1010.8
20260905025617 83 109 10.0 12.0 0.00 0.00 0.00 69 1010.8
20260905024503 83 57 10.0 12.0 0.00 0.00 0.00 68 1010.6
20260905023603 84 60 9.0 11.0 0.00 0.00 0.00 68 1010.5
20260905022703 83 55 9.0 10.0 0.00 0.00 0.00 68 1010.5
20260905022016 84 102 9.0 11.0 0.00 0.00 0.00 68 1010.3
20260905021114 84 60 8.0 11.0 0.00 0.00 0.00 67 1010.2
20260905020216 84 65 8.0 10.0 0.00 0.00 0.00 67 1010.1
20260905015403 84 92 8.0 10.0 0.00 0.00 0.00 67 1010.1
20260905014503 85 113 9.0 10.0 0.00 0.00 0.00 67 1010.0
20260905013817 85 117 8.0 10.0 0.00 0.00 0.00 67 1010.0
20260905012703 86 107 8.0 10.0 0.00 0.00 0.00 66 1009.9
20260905012017 86 95 8.0 10.0 0.00 0.00 0.00 65 1010.0
20260905010903 88 106 9.0 10.0 0.00 0.00 0.00 63 1010.0
20260905010003 88 112 8.0 11.0 0.00 0.00 0.00 62 1010.1
20260905005613 89 112 8.0 11.0 0.00 0.00 0.00 61 1010.0
20260905004716 90 113 7.0 9.0 0.00 0.00 0.00 60 1010.0
20260905003813 90 112 7.0 9.0 0.00 0.00 0.00 59 1010.0
20260905002703 92 118 8.0 10.0 0.00 0.00 0.00 56 1010.0
20260905002013 93 120 9.0 11.0 0.00 0.00 0.00 54 1009.9
20260905001115 94 120 9.0 12.0 0.00 0.00 0.00 53 1009.9
20260905000003 95 124 10.0 13.0 0.00 0.00 0.00 51 1009.8
20260904235403 95 123 10.0 14.0 0.00 0.00 0.00 50 1009.7
20260904234503 96 123 11.0 15.0 0.00 0.00 0.00 49 1009.7
20260904233814 96 121 12.0 16.0 0.00 0.00 0.00 48 1009.8
20260904232703 97 125 12.0 17.0 0.00 0.00 0.00 47 1009.9
20260904231803 97 124 13.0 18.0 0.00 0.00 0.00 47 1010.0
20260904230903 98 123 10.0 14.0 0.00 0.00 0.00 47 1010.1
20260904230213 98 119 12.0 16.0 0.00 0.00 0.00 47 1010.0
20260904225614 98 122 13.0 18.0 0.00 0.00 0.00 46 1010.1
20260904224717 98 129 14.0 19.0 0.00 0.00 0.00 46 1010.1
20260904223603 98 125 15.0 19.0 0.00 0.00 0.00 45 1009.9
20260904222703 98 128 14.0 20.0 0.00 0.00 0.00 44 1010.0
20260904221804 98 123 14.0 21.0 0.00 0.00 0.00 46 1010.0
20260904220903 99 127 14.0 20.0 0.00 0.00 0.00 46 1010.0
20260904220213 98 118 14.0 20.0 0.00 0.00 0.00 46 1010.1
20260904215615 99 105 14.0 20.0 0.00 0.00 0.00 46 1010.1
20260904214503 99 104 13.0 18.0 0.00 0.00 0.00 44 1010.1
20260904213603 99 123 12.0 18.0 0.00 0.00 0.00 44 1010.2
20260904212703 99 101 13.0 19.0 0.00 0.00 0.00 45 1010.2
20260904212014 99 102 14.0 19.0 0.00 0.00 0.00 44 1010.2
20260904211117 99 109 13.0 19.0 0.00 0.00 0.00 45 1010.3
20260904210214 99 120 13.0 17.0 0.00 0.00 0.00 46 1010.4
20260904205616 99 122 11.0 17.0 0.00 0.00 0.00 46 1010.4
20260904204713 99 130 11.0 18.0 0.00 0.00 0.00 43 1010.5
20260904203604 99 120 12.0 18.0 0.00 0.00 0.00 46 1010.6
20260904202913 99 121 13.0 18.0 0.00 0.00 0.00 47 1010.6
20260904202015 99 120 14.0 19.0 0.00 0.00 0.00 48 1010.6
20260904201117 99 115 14.0 18.0 0.00 0.00 0.00 48 1010.6
20260904200215 98 118 14.0 20.0 0.00 0.00 0.00 49 1010.7
20260904195616 99 114 13.0 20.0 0.00 0.00 0.00 49 1010.8
20260904194503 98 121 11.0 18.0 0.00 0.00 0.00 50 1010.7
20260904193816 99 146 11.0 19.0 0.00 0.00 0.00 49 1010.8
20260904192913 98 127 12.0 18.0 0.00 0.00 0.00 48 1010.8
20260904192016 98 137 12.0 19.0 0.00 0.00 0.00 49 1010.8
20260904191113 98 139 10.0 18.0 0.00 0.00 0.00 51 1010.8
20260904190003 98 121 12.0 18.0 0.00 0.00 0.00 51 1010.8
20260904185617 98 129 12.0 17.0 0.00 0.00 0.00 50 1010.9
20260904184714 97 142 12.0 18.0 0.00 0.00 0.00 52 1010.9
20260904183817 97 132 11.0 16.0 0.00 0.00 0.00 53 1011.1
20260904182703 96 138 11.0 17.0 0.00 0.00 0.00 55 1011.1
20260904182016 96 147 12.0 20.0 0.00 0.00 0.00 55 1011.2
20260904180903 96 150 14.0 21.0 0.00 0.00 0.00 56 1011.2
20260904180003 96 154 13.0 21.0 0.00 0.00 0.00 55 1011.4
20260904175403 95 157 14.0 23.0 0.00 0.00 0.00 57 1011.4
20260904174504 95 160 15.0 22.0 0.00 0.00 0.00 56 1011.5
20260904173817 95 157 15.0 22.0 0.00 0.00 0.00 57 1011.5
20260904172703 94 139 14.0 21.0 0.00 0.00 0.00 59 1011.5
20260904172017 94 141 14.0 21.0 0.00 0.00 0.00 58 1011.5
20260904170903 93 149 13.0 20.0 0.00 0.00 0.00 61 1011.7
20260904170003 93 141 14.0 20.0 0.00 0.00 0.00 60 1011.7
20260904165403 93 139 13.0 18.0 0.00 0.00 0.00 60 1011.6
20260904164503 92 150 12.0 19.0 0.00 0.00 0.00 61 1011.6
20260904163603 92 165 14.0 22.0 0.00 0.00 0.00 62 1011.6
20260904162703 91 156 13.0 23.0 0.00 0.00 0.00 63 1011.6
20260904161803 90 157 14.0 21.0 0.00 0.00 0.00 64 1011.7
20260904161115 90 155 15.0 22.0 0.00 0.00 0.00 66 1011.6
20260904160003 89 151 15.0 21.0 0.00 0.00 0.00 66 1011.5
20260904155403 89 150 14.0 20.0 0.00 0.00 0.00 66 1011.4
20260904154503 88 158 15.0 21.0 0.00 0.00 0.00 68 1011.5
20260904153603 87 161 17.0 24.0 0.00 0.00 0.00 68 1011.5
20260904152916 87 159 16.0 24.0 0.00 0.00 0.00 69 1011.5
20260904151804 86 153 14.0 19.0 0.00 0.00 0.00 70 1011.6
20260904151116 86 151 14.0 20.0 0.00 0.00 0.00 70 1011.7
20260904150003 85 159 14.0 22.0 0.00 0.00 0.00 71 1011.7
20260904145614 85 158 14.0 22.0 0.00 0.00 0.00 72 1011.7
20260904144503 84 162 14.0 20.0 0.00 0.00 0.00 72 1011.8
20260904143603 84 155 13.0 18.0 0.00 0.00 0.00 73 1011.8
20260904142703 83 160 11.0 17.0 0.00 0.00 0.00 74 1011.6
20260904141803 82 157 11.0 20.0 0.00 0.00 0.00 76 1011.6
20260904141116 82 154 10.0 15.0 0.00 0.00 0.00 77 1011.5
20260904140213 80 147 11.0 15.0 0.00 0.00 0.00 79 1011.5
20260904135615 80 142 11.0 15.0 0.00 0.00 0.00 79 1011.5
20260904134503 79 140 9.0 14.0 0.00 0.00 0.00 81 1011.5
20260904133603 78 132 9.0 13.0 0.00 0.00 0.00 82 1011.5
20260904132917 78 129 10.0 12.0 0.00 0.00 0.00 82 1011.5
20260904131803 77 135 8.0 12.0 0.00 0.00 0.00 83 1011.5
20260904130903 76 135 7.0 11.0 0.00 0.00 0.00 84 1011.4
20260904130214 76 138 8.0 11.0 0.00 0.00 0.00 85 1011.5
20260904125616 75 139 8.0 11.0 0.00 0.00 0.00 86 1011.5
20260904124503 74 137 8.0 10.0 0.00 0.00 0.00 88 1011.4
20260904123604 74 137 7.0 9.0 0.00 0.00 0.00 88 1011.3
20260904122913 74 135 6.0 9.0 0.00 0.00 0.00 88 1011.3
20260904122015 74 137 6.0 8.0 0.00 0.00 0.00 88 1011.2
20260904121112 73 133 7.0 9.0 0.00 0.00 0.00 88 1011.1
20260904120003 73 126 8.0 10.0 0.00 0.00 0.00 88 1010.9
20260904115616 73 120 8.0 10.0 0.00 0.00 0.00 88 1010.9
20260904114714 73 115 7.0 10.0 0.00 0.00 0.00 88 1010.7
20260904113816 73 111 8.0 10.0 0.00 0.00 0.00 89 1010.6
20260904112703 73 130 8.0 10.0 0.00 0.00 0.00 89 1010.6
20260904112016 73 132 7.0 9.0 0.00 0.00 0.00 89 1010.6
20260904111113 73 129 5.0 8.0 0.00 0.00 0.00 88 1010.6
20260904110003 73 128 7.0 9.0 0.00 0.00 0.00 88 1010.7
20260904105617 73 129 8.0 9.0 0.00 0.00 0.00 88 1010.6
20260904104714 73 132 5.0 9.0 0.00 0.00 0.00 87 1010.7
20260904103817 73 131 4.0 5.0 0.00 0.00 0.00 88 1010.7
20260904102914 73 132 4.0 5.0 0.00 0.00 0.00 87 1010.7
20260904102016 73 130 4.0 5.0 0.00 0.00 0.00 87 1010.7
20260904101114 74 129 5.0 7.0 0.00 0.00 0.00 87 1010.7
20260904100004 74 132 6.0 8.0 0.00 0.00 0.00 87 1010.7
20260904095613 74 132 6.0 8.0 0.00 0.00 0.00 87 1010.7
20260904094503 74 131 7.0 8.0 0.00 0.00 0.00 87 1010.6
20260904093603 74 132 7.0 9.0 0.00 0.00 0.00 87 1010.5
20260904092915 74 134 7.0 8.0 0.00 0.00 0.00 86 1010.5
20260904091803 74 147 5.0 6.0 0.00 0.00 0.00 86 1010.4
20260904091114 74 148 5.0 6.0 0.00 0.00 0.00 86 1010.3
20260904090217 74 144 5.0 8.0 0.00 0.00 0.00 86 1010.2
20260904085613 74 140 5.0 8.0 0.00 0.00 0.00 86 1010.2
20260904084716 74 136 6.0 8.0 0.00 0.00 0.00 85 1010.2
20260904083603 74 139 5.0 7.0 0.00 0.00 0.00 84 1010.2
20260904082915 75 140 5.0 7.0 0.00 0.00 0.00 84 1010.2
20260904081803 75 142 5.0 8.0 0.00 0.00 0.00 83 1010.1
20260904080903 76 136 4.0 7.0 0.00 0.00 0.00 82 1010.1
20260904080212 76 133 5.0 8.0 0.00 0.00 0.00 81 1010.1
20260904075403 77 131 7.0 9.0 0.00 0.00 0.00 80 1010.1
20260904074716 77 131 8.0 9.0 0.00 0.00 0.00 79 1010.1
20260904073603 78 134 8.0 10.0 0.00 0.00 0.00 78 1010.1
20260904072916 78 135 9.0 10.0 0.00 0.00 0.00 77 1010.1
20260904072013 79 138 8.0 11.0 0.00 0.00 0.00 76 1010.1
20260904071116 80 143 8.0 11.0 0.00 0.00 0.00 75 1010.1
20260904070213 80 142 9.0 11.0 0.00 0.00 0.00 73 1010.0
20260904065614 80 143 9.0 11.0 0.00 0.00 0.00 73 1010.1
20260904064717 81 143 10.0 13.0 0.00 0.00 0.00 72 1010.1
20260904063603 81 145 11.0 14.0 0.00 0.00 0.00 71 1010.0
20260904062917 82 144 11.0 17.0 0.00 0.00 0.00 70 1010.0
20260904062014 82 144 12.0 18.0 0.00 0.00 0.00 70 1010.0
20260904061116 82 142 13.0 19.0 0.00 0.00 0.00 69 1010.0
20260904060213 83 143 14.0 19.0 0.00 0.00 0.00 68 1009.9
20260904055615 83 141 14.0 19.0 0.00 0.00 0.00 68 1009.9
20260904054503 83 138 14.0 19.0 0.00 0.00 0.00 67 1009.8
20260904053815 82 137 13.0 17.0 0.00 0.00 0.00 67 1009.7
20260904052703 82 134 13.0 19.0 0.00 0.00 0.00 67 1009.6
20260904051803 82 131 12.0 18.0 0.00 0.00 0.00 67 1009.5
20260904051117 82 130 12.0 17.0 0.00 0.00 0.00 67 1009.5
20260904050003 82 131 12.0 16.0 0.00 0.00 0.00 67 1009.3
20260904045403 82 131 12.0 16.0 0.00 0.00 0.00 67 1009.4
20260904044503 82 129 12.0 16.0 0.00 0.00 0.00 67 1009.4
20260904043815 82 130 13.0 17.0 0.00 0.00 0.00 67 1009.3
20260904042913 82 128 12.0 17.0 0.00 0.00 0.00 67 1009.3